Regional Weather Roundup
Issued by NWS

Home | Current Version | Previous Version | Text Only | Print | Product List | Glossary Off
Versions: 1 2 3 4 5 6 7 8 9 10 11 12 13 14 15 16 17 18 19 20 21 22 23 24 25 26 27 28 29 30 31 32 33 34 35 36 37 38 39 40 41 42 43 44 45 46 47 48 49 50

000
ASUS43 KIND 051809
RWRIN

WEATHER ROUNDUP FOR INDIANA
NATIONAL WEATHER SERVICE INDIANAPOLIS IN
200 PM EDT TUE MAY 05 2015

NOTE: "FAIR" INDICATES FEW OR NO CLOUDS BELOW 12,000 FEET WITH NO
SIGNIFICANT WEATHER AND/OR OBSTRUCTIONS TO VISIBILITY.

* - STATION DOES NOT REPORT WEATHER SUCH AS PRECIPITATION OR FOG.

+ - STATION NOT QUALITY CONTROLLED BY THE NATIONAL WEATHER SERVICE.
    USE DATA WITH CAUTION...ESPECIALLY DEWPOINT AND RELATIVE
    HUMIDITY OBSERVATIONS.

INZ001>003-010>013-019-020-051900-
NORTHWEST INDIANA

CITY           SKY/WX    TMP DP  RH WIND       PRES   REMARKS
KNOX *+        PTSUNNY   72  50  46 NW5       30.20S
LA PORTE +     LGT RAIN  67  67 100 NE5       30.21F
                                      6HR PCP:  0.12;

MICHIGAN CITY+ CLOUDY    63  63 100 CALM      30.22F
MONTICELLO +   MOSUNNY   78  63  60 S9        30.18F
6HR MIN TEMP:  60; 6HR MAX TEMP:  78; 6HR PCP:  0.01;

VALPARAISO     CLOUDY    68  65  90 NE7       30.20F
6HR MIN TEMP:  58; 6HR MAX TEMP:  70; 6HR PCP:  0.08;


$$

LMZ046-743>745-051900-
SOUTHERN LAKE MICHIGAN

STATION/POSITION TIME  TEMP    WIND        PRES    WAVE
                       AIR SEA DIR/SP/G            HT
                 (UTC) (F)     (DEG/KT/KT) (MB)    (FT)
BURNS HARBOR     1800   47     320/  4/  8 1023.7S
MICHIGAN CITY    1800          360/ 11/ 12   N/A
5NW MICH CITY    1800   49 49   30/  8/ 12   N/A     1

$$

INZ004-005-014>016-021>024-051900-
NORTH CENTRAL INDIANA

CITY           SKY/WX    TMP DP  RH WIND       PRES   REMARKS
ELKHART        LGT RAIN  59  57  94 N6        30.24S
GOSHEN         PTSUNNY   71  62  73 SE6       30.21F
6HR MIN TEMP:  61; 6HR MAX TEMP:  71; 6HR PCP:  0.19;

LOGANSPORT +   MOSUNNY   77  59  53 S10       30.20F
PERU/GRISSOM   MOSUNNY   78  63  61 SW8       30.19F
6HR MIN TEMP:  62; 6HR MAX TEMP:  78;

ROCHESTER +    MOSUNNY   77  66  69 E7        30.20F
SOUTH BEND     HVY RAIN  61  60  97 NE5       30.24F VSB 1
6HR MIN TEMP:  58; 6HR MAX TEMP:  63; 6HR PCP:  0.29;

WARSAW +       PTSUNNY   70  63  78 SE6       30.22S

$$

INZ006>009-017-018-025>027-051900-
NORTHEAST INDIANA

CITY           SKY/WX    TMP DP  RH WIND       PRES   REMARKS
ANGOLA *+      CLOUDY    57  46  67 SE6       30.25S
AUBURN +       CLOUDY    66  63  88 E6        30.25S FOG
FORT WAYNE     PTSUNNY   74  64  71 CALM      30.22F
6HR MIN TEMP:  60; 6HR MAX TEMP:  74;

HUNTINGTON +   MOSUNNY   74  62  65 S7        30.21F
6HR MIN TEMP:  60; 6HR MAX TEMP:  74;


$$

INZ028-029-035-036-043>045-051>053-051900-
WEST CENTRAL INDIANA

CITY           SKY/WX    TMP DP  RH WIND       PRES   REMARKS
CRAWFORDSVL +  SUNNY     78  44  30 SW7G22    30.20F
6HR MIN TEMP:  59; 6HR MAX TEMP:  79;

GREENCASTLE +  PTSUNNY   77  50  38 W10       30.21F
LAFAYETTE      MOSUNNY   78  58  49 SW7       30.17F
6HR MIN TEMP:  60; 6HR MAX TEMP:  79;

TERRE HAUTE    SUNNY     82  52  35 SW13      30.20F
6HR MIN TEMP:  61; 6HR MAX TEMP:  83;


$$

INZ030>032-037>040-046>048-054>057-064-065-051900-
CENTRAL INDIANA

CITY           SKY/WX    TMP DP  RH WIND       PRES   REMARKS
CP ATTERBURY + PTSUNNY   79  54  41 W10       30.22F
COLUMBUS       MOSUNNY   79  54  41 SW12      30.23F
FISHERS *+     MOSUNNY   79  59  50 SW8G20    30.21
FRANKFORT +    SUNNY     80  57  46 SW13G20   30.22F
6HR MIN TEMP:  61; 6HR MAX TEMP:  80;

GREENWOOD *+   MOSUNNY   81  50  34 SW9G17    30.22F
INDIANAPOLIS   MOSUNNY   80  53  39 W15       30.20F
6HR MIN TEMP:  65; 6HR MAX TEMP:  82;

-EAGLE CREEK   MOSUNNY   80  52  37 SW9       30.20F
6HR MIN TEMP:  63; 6HR MAX TEMP:  80;

KOKOMO *+      MOSUNNY   79  63  57 W10G16    30.20F
6HR MIN TEMP:  63; 6HR MAX TEMP:  79;

MARION +       MOSUNNY   77  58  52 SW12      30.22F
MT COMFORT *+  SUNNY     81  34  18 SW13G20   30.22F
SHELBYVILLE    MOSUNNY   81  55  40 VRB7      30.21F
6HR MIN TEMP:  65; 6HR MAX TEMP:  83;

ZIONSVILLE +   MOSUNNY   80  53  38 SW7       30.22F
6HR MIN TEMP:  63; 6HR MAX TEMP:  80; 6HR PCP:  0.01;


$$

INZ033-034-041-042-049-050-058-059-051900-
EAST CENTRAL INDIANA

CITY           SKY/WX    TMP DP  RH WIND       PRES   REMARKS
MUNCIE         MOSUNNY   78  59  51 W6        30.22F
6HR MIN TEMP:  63; 6HR MAX TEMP:  78;


$$

INZ060-061-067>069-081>083-085>088-051900-
SOUTHWEST INDIANA

CITY           SKY/WX    TMP DP  RH WIND       PRES   REMARKS
EVANSVILLE     MOSUNNY   83  55  38 SW6       30.23F
6HR MIN TEMP:  60; 6HR MAX TEMP:  84;

HUNTINGBURG *+ PTSUNNY   82  55  39 W9        30.24S
6HR MIN TEMP:  63; 6HR MAX TEMP:  82;

WASHINGTON +   PTSUNNY   80  50  35 SW13G18   30.21F
6HR MIN TEMP:  62; 6HR MAX TEMP:  82;


$$

INZ062-063-066-070>080-084-089>092-051900-
SOUTH CENTRAL AND SOUTHEAST INDIANA

CITY           SKY/WX    TMP DP  RH WIND       PRES   REMARKS
BLOOMINGTON    PTSUNNY   80  51  36 SW10      30.23F
6HR MIN TEMP:  66; 6HR MAX TEMP:  82;

MADISON *+     MOSUNNY   79  46  31 SW9       30.27F
NORTH VERNON + MOSUNNY   79  54  41 W7G17     30.24F
SEYMOUR +      MOSUNNY   82  55  39 SW10G20   30.23F

$$




USA.gov is the U.S. government's official web portal to all federal, state and local government web resources and services.